Location: Presov
(49.0000°N, 21.2500°E)
Time: 21:15:53
(UTC+02:00)

ISS - Pass Details

Date: 18 May 2025
Orbit: 415 x 416 km, 51.6° (Epoch: 16 June)

Event Time Altitude Azimuth Distance (km) Brightness Sun altitude
Rises 21:26:46 0° 283° (WNW) 2,361 1.1 -9.9°
Reaches altitude 10° 21:28:54 10° 287° (WNW) 1,496 0.1 -10.2°
Maximum altitude 21:32:13 55° 7° (N) 509 -3.1 -10.6°
Drops below altitude 10° 21:35:30 10° 86° (E) 1,492 -1.3 -10.9°
Enters shadow 21:36:01 - 88° (E) 1,700 -1.0 -11.0°
